EA3KZ-1 Weather Reports


time (UTC)temp
C
wind
direction
speed
KPH
gust
KPH
rain 1hr
cm
rain 24hr
cm
rain mn
cm
humidity
%
barometer
mb
20260503013101 14 8 3.2 9.7 0.00 0.00 0.00 88 1013.2
20260503012058 14 314 4.8 9.7 0.00 0.00 0.00 89 1013.2
20260503011056 14 10 4.8 9.7 0.00 0.00 0.00 89 1013.3
20260503010053 14 344 3.2 9.7 0.00 0.00 0.00 89 1013.7
20260503005051 14 328 3.2 6.4 0.00 0.00 0.00 89 1013.9
20260503004048 14 359 4.8 6.4 0.00 0.00 0.00 89 1013.9
20260503003045 15 304 3.2 9.7 0.00 0.00 0.00 88 1014.1
20260503002043 15 29 3.2 9.7 0.00 0.00 0.00 88 1014.3
20260503001040 15 338 4.8 11.3 0.00 0.00 0.00 88 1014.2
20260503000038 15 344 3.2 11.3 0.00 0.00 0.00 88 1014.5
20260502235035 15 305 6.4 14.5 0.00 0.00 0.00 87 1014.5
20260502234032 15 358 8.0 14.5 0.00 0.00 0.00 87 1014.7
20260502233030 15 334 6.4 12.9 0.00 0.00 0.00 88 1014.7
20260502232027 15 340 6.4 11.3 0.00 0.00 0.00 88 1014.9
20260502231024 15 320 6.4 9.7 0.00 0.00 0.00 88 1014.9
20260502230021 15 2 4.8 11.3 0.00 0.00 0.00 87 1014.8
20260502225018 15 349 4.8 11.3 0.00 0.00 0.00 87 1014.6
20260502224016 15 308 4.8 11.3 0.00 0.00 0.00 87 1014.7
20260502223113 15 331 4.8 9.7 0.00 0.00 0.00 87 1014.9
20260502222111 15 316 8.0 12.9 0.00 0.00 0.00 87 1015.0
20260502221108 15 335 9.7 12.9 0.00 0.00 0.00 86 1015.2
20260502220106 15 351 8.0 12.9 0.00 0.00 0.00 86 1015.2
20260502215103 15 351 9.7 17.7 0.00 0.00 0.00 86 1015.1
20260502214100 15 330 6.4 14.5 0.00 0.00 0.00 86 1015.2
20260502213058 15 348 3.2 9.7 0.00 0.00 0.00 86 1015.4
20260502212055 15 359 6.4 11.3 0.00 0.00 0.00 86 1015.5
20260502211053 15 11 4.8 11.3 0.00 0.00 0.00 86 1015.4
20260502210050 15 350 3.2 6.4 0.00 0.00 0.00 86 1015.6
20260502205048 15 340 4.8 11.3 0.00 0.00 0.00 86 1015.4
20260502204045 15 14 4.8 12.9 0.00 0.00 0.00 86 1015.6
20260502203042 15 351 4.8 9.7 0.00 0.00 0.00 86 1015.4
20260502202039 15 51 3.2 9.7 0.00 0.00 0.00 86 1015.5
20260502201037 15 23 6.4 11.3 0.00 0.00 0.00 86 1015.3
20260502200034 15 330 6.4 12.9 0.00 0.00 0.00 85 1015.2
20260502195031 15 334 6.4 11.3 0.00 0.00 0.00 84 1015.1
20260502194028 15 350 4.8 11.3 0.00 0.00 0.00 84 1015.0
20260502193026 15 329 4.8 9.7 0.00 0.00 0.00 84 1015.1
20260502192023 15 15 4.8 11.3 0.00 0.00 0.00 84 1015.2
20260502191020 15 94 3.2 6.4 0.00 0.00 0.00 83 1015.0
20260502190018 15 114 1.6 6.4 0.00 0.00 0.00 81 1015.2
20260502185015 15 60 6.4 12.9 0.00 0.00 0.00 80 1015.1
20260502184113 15 74 4.8 11.3 0.00 0.00 0.00 79 1014.9
20260502183110 16 133 1.6 6.4 0.00 0.00 0.00 78 1015.2
20260502182108 16 27 4.8 11.3 0.00 0.00 0.00 76 1015.1
20260502181105 16 34 1.6 11.3 0.00 0.00 0.00 74 1015.0
20260502164041 17 14 3.2 12.9 0.00 0.00 0.00 65 1015.8
20260502163039 17 47 4.8 12.9 0.00 0.00 0.00 67 1015.7
20260502162036 16 9 9.7 20.9 0.00 0.00 0.00 67 1015.6
20260502161033 17 31 8.0 12.9 0.00 0.00 0.00 65 1015.9
20260502152021 17 79 4.8 14.5 0.00 0.00 0.00 66 1016.4
20260502151018 18 169 1.6 6.4 0.00 0.00 0.00 68 1016.3
20260502123035 20 68 3.2 14.5 0.00 0.00 0.00 49 1017.5
20260502122033 20 85 3.2 6.4 0.00 0.00 0.00 51 1017.6
20260502121030 20 86 4.8 17.7 0.00 0.00 0.00 54 1017.6
20260502115025 18 8 3.2 9.7 0.00 0.00 0.00 63 1017.7
20260502114023 18 4 4.8 9.7 0.00 0.00 0.00 65 1017.8
20260502113020 17 341 4.8 12.9 0.00 0.00 0.00 65 1017.8
20260502112017 17 320 4.8 12.9 0.00 0.00 0.00 66 1017.9
20260502111115 17 351 6.4 14.5 0.00 0.00 0.00 67 1018.0
20260502110112 17 340 4.8 12.9 0.00 0.00 0.00 68 1017.9
20260502105109 16 332 8.0 12.9 0.00 0.00 0.00 68 1018.1
20260502104107 16 346 4.8 11.3 0.00 0.00 0.00 68 1018.4
20260502103104 16 322 4.8 11.3 0.00 0.00 0.00 69 1018.7
20260502102102 16 32 4.8 9.7 0.00 0.00 0.00 68 1018.7
20260502101059 16 3 3.2 9.7 0.00 0.00 0.00 68 1018.8
20260502091043 15 319 6.4 11.3 0.00 0.00 0.00 72 1018.9
20260502071112 15 1 8.0 11.3 0.00 0.00 0.00 80 1018.8
20260502070109 15 345 4.8 9.7 0.00 0.00 0.00 82 1018.8
20260502065107 15 353 4.8 9.7 0.00 0.00 0.00 82 1018.8
20260502064104 15 7 4.8 11.3 0.00 0.00 0.00 83 1018.8
20260502063102 15 0 4.8 9.7 0.00 0.00 0.00 83 1018.6
20260502062059 15 303 4.8 12.9 0.00 0.00 0.00 84 1018.5
20260502061057 14 330 3.2 9.7 0.00 0.00 0.00 84 1018.7
20260502060054 14 326 4.8 11.3 0.00 0.00 0.00 84 1018.5
20260502055051 14 7 6.4 11.3 0.00 0.00 0.00 85 1018.6
20260502054049 14 319 4.8 9.7 0.00 0.00 0.00 85 1018.5
20260502053046 14 327 4.8 6.4 0.00 0.00 0.00 85 1018.4
20260502052044 14 342 6.4 11.3 0.00 0.00 0.00 86 1018.4
20260502051041 14 342 4.8 6.4 0.00 0.00 0.00 86 1018.3
20260502050038 14 339 4.8 9.7 0.00 0.00 0.00 86 1018.3
20260502045035 14 336 4.8 11.3 0.00 0.00 0.00 87 1018.4
20260502044033 14 20 6.4 11.3 0.00 0.00 0.00 87 1018.4
20260502043030 14 325 6.4 11.3 0.00 0.00 0.00 86 1018.3
20260502042027 14 327 6.4 12.9 0.00 0.00 0.00 86 1018.3
20260502041024 14 327 3.2 9.7 0.00 0.00 0.00 87 1018.3
20260502040022 14 345 4.8 12.9 0.00 0.00 0.00 87 1018.3
20260502035019 14 22 4.8 9.7 0.00 0.00 0.00 87 1018.3
20260502034016 14 348 4.8 9.7 0.00 0.00 0.00 87 1018.4
20260502033114 14 14 4.8 11.3 0.00 0.00 0.00 88 1018.4
20260502032112 15 17 6.4 11.3 0.00 0.00 0.00 88 1018.3
20260502031109 15 338 6.4 11.3 0.00 0.00 0.00 88 1018.4
20260502030106 15 343 8.0 14.5 0.00 0.00 0.00 88 1018.4
20260502025104 15 355 6.4 11.3 0.00 0.00 0.00 88 1018.5
20260502024101 15 351 4.8 11.3 0.00 0.00 0.00 88 1018.6
20260502023059 15 311 6.4 9.7 0.00 0.00 0.00 88 1018.6
20260502022056 15 345 4.8 11.3 0.00 0.00 0.00 88 1018.5
20260502021053 15 321 4.8 11.3 0.00 0.00 0.00 88 1018.5
20260502020051 15 332 4.8 11.3 0.00 0.00 0.00 89 1018.7
20260502015048 14 318 6.4 9.7 0.00 0.00 0.00 88 1018.7
20260502014045 14 300 4.8 6.4 0.00 0.00 0.00 88 1018.7